HKE115 RCTP-VHHH

Flight info

Callsign HKE115
Flight time 1h 27m
Altitude 36000
Route CHALI T3 MKG A1 ELATO V522 ABBEY
Aircraft A320/M-SDE3FGHIRWY/LB1

Departure

Time 2026-05-04 12:00
Airport Taiwan Taoyuan International Airport (RCTP)

Arrival

Time 2026-05-04 13:28
Airport Hong Kong International Airport (VHHH)
Time Latitude Longitude Altitude Speed Heading
2026-05-04 11:29 25.08147 121.24124 142 ft 0 kts 288°
2026-05-04 11:45 25.08141 121.24144 100 ft 4 kts 288°
2026-05-04 11:45 25.08134 121.24172 99 ft 4 kts 292°
2026-05-04 11:45 25.08118 121.24193 99 ft 3 kts 328°
2026-05-04 11:45 25.08095 121.24208 100 ft 4 kts 328°
2026-05-04 11:46 25.08077 121.24220 99 ft 3 kts 326°
2026-05-04 11:46 25.08070 121.24234 99 ft 4 kts 240°
2026-05-04 11:46 25.08082 121.24252 100 ft 4 kts 229°
2026-05-04 11:46 25.08094 121.24268 100 ft 0 kts 229°
2026-05-04 11:49 25.08091 121.24263 99 ft 2 kts 229°
2026-05-04 11:49 25.08073 121.24240 99 ft 6 kts 229°
2026-05-04 11:49 25.08043 121.24201 99 ft 7 kts 229°
2026-05-04 11:50 25.07997 121.24172 100 ft 9 kts 180°
2026-05-04 11:50 25.07943 121.24212 101 ft 7 kts 140°
2026-05-04 11:50 25.07923 121.24231 100 ft 2 kts 139°
2026-05-04 11:50 25.07920 121.24233 100 ft 0 kts 139°
2026-05-04 11:53 25.07919 121.24234 100 ft 1 kts 139°
2026-05-04 11:53 25.07889 121.24261 100 ft 8 kts 146°
2026-05-04 11:53 25.07830 121.24249 100 ft 10 kts 227°
2026-05-04 11:55 25.07384 121.23685 99 ft 17 kts 229°
2026-05-04 11:55 25.07302 121.23580 100 ft 19 kts 229°
2026-05-04 11:56 25.07212 121.23466 100 ft 21 kts 229°
2026-05-04 11:56 25.07113 121.23341 100 ft 22 kts 229°
2026-05-04 11:56 25.07007 121.23205 100 ft 24 kts 229°
2026-05-04 11:56 25.06895 121.23066 101 ft 25 kts 228°
2026-05-04 11:57 25.06781 121.22922 101 ft 21 kts 229°
2026-05-04 11:57 25.06682 121.22796 99 ft 23 kts 229°
2026-05-04 11:57 25.06575 121.22661 99 ft 20 kts 229°
2026-05-04 11:57 25.06494 121.22554 100 ft 19 kts 230°
2026-05-04 11:58 25.06404 121.22441 100 ft 20 kts 228°
2026-05-04 11:58 25.06318 121.22334 100 ft 15 kts 228°
2026-05-04 11:58 25.06255 121.22258 100 ft 11 kts 224°
2026-05-04 11:58 25.06180 121.22270 101 ft 14 kts 137°
2026-05-04 11:59 25.06111 121.22342 96 ft 12 kts 134°
2026-05-04 11:59 25.06131 121.22417 96 ft 13 kts 47°
2026-05-04 11:59 25.06216 121.22522 95 ft 38 kts 50°
2026-05-04 11:59 25.06543 121.22942 93 ft 103 kts 49°
2026-05-04 12:00 25.07113 121.23666 103 ft 148 kts 53°
2026-05-04 12:00 25.07778 121.24533 709 ft 149 kts 54°
2026-05-04 12:00 25.08457 121.25410 1383 ft 150 kts 54°
2026-05-04 12:00 25.09139 121.26289 2053 ft 154 kts 55°
2026-05-04 12:01 25.09880 121.27256 2389 ft 176 kts 55°
2026-05-04 12:01 25.10720 121.28357 2791 ft 196 kts 54°
2026-05-04 12:02 25.18625 121.25702 7369 ft 273 kts 302°
2026-05-04 12:03 25.19785 121.24037 8290 ft 275 kts 302°
2026-05-04 12:03 25.21001 121.22405 9193 ft 276 kts 304°
2026-05-04 12:03 25.22270 121.20809 10118 ft 277 kts 305°
2026-05-04 12:03 25.23610 121.19185 10484 ft 298 kts 308°
2026-05-04 12:04 25.25082 121.17450 10671 ft 321 kts 308°
2026-05-04 12:04 25.26570 121.15524 10941 ft 334 kts 297°
2026-05-04 12:04 25.27317 121.13127 11509 ft 332 kts 273°
2026-05-04 12:04 25.27033 121.10627 12230 ft 331 kts 249°
2026-05-04 12:05 25.25801 121.08469 12901 ft 337 kts 232°
2026-05-04 12:05 25.24259 121.06504 13597 ft 340 kts 231°
2026-05-04 12:05 25.22688 121.04540 14238 ft 343 kts 231°
2026-05-04 12:05 25.21100 121.02559 14822 ft 345 kts 231°
2026-05-04 12:06 25.19469 121.00598 15410 ft 348 kts 229°
2026-05-04 12:06 25.17749 120.98698 16007 ft 351 kts 227°
2026-05-04 12:06 25.15975 120.96828 16578 ft 354 kts 227°
2026-05-04 12:06 25.14165 120.94966 17168 ft 358 kts 225°
2026-05-04 12:07 25.12249 120.93187 17735 ft 361 kts 223°
2026-05-04 12:07 25.10280 120.91437 18288 ft 366 kts 222°
2026-05-04 12:07 25.08282 120.89683 18802 ft 369 kts 222°
2026-05-04 12:07 25.06268 120.87913 19317 ft 372 kts 223°
2026-05-04 12:08 25.05408 120.87153 19545 ft 373 kts 223°
2026-05-04 12:08 25.03674 120.85611 20006 ft 375 kts 223°
2026-05-04 12:08 25.01646 120.83792 20500 ft 377 kts 223°
2026-05-04 12:08 24.99610 120.81956 21010 ft 380 kts 223°
2026-05-04 12:09 24.97560 120.80102 21498 ft 382 kts 224°
2026-05-04 12:09 24.95500 120.78239 21967 ft 384 kts 224°
2026-05-04 12:09 24.93424 120.76365 22412 ft 387 kts 224°
2026-05-04 12:09 24.91336 120.74482 22852 ft 389 kts 224°
2026-05-04 12:10 24.89232 120.72588 23282 ft 392 kts 224°
2026-05-04 12:10 24.87114 120.70684 23689 ft 394 kts 224°
2026-05-04 12:10 24.84982 120.68768 24029 ft 396 kts 224°
2026-05-04 12:10 24.82845 120.66848 24391 ft 397 kts 224°
2026-05-04 12:11 24.80706 120.64926 24756 ft 398 kts 224°
2026-05-04 12:11 24.78556 120.62994 25117 ft 399 kts 224°
2026-05-04 12:11 24.76404 120.61061 25476 ft 400 kts 224°
2026-05-04 12:11 24.74244 120.59126 25825 ft 401 kts 223°
2026-05-04 12:12 24.72075 120.57183 26174 ft 402 kts 223°
2026-05-04 12:12 24.69904 120.55239 26527 ft 403 kts 223°
2026-05-04 12:12 24.67727 120.53288 26855 ft 404 kts 223°
2026-05-04 12:12 24.65547 120.51329 27169 ft 406 kts 223°
2026-05-04 12:13 24.63354 120.49362 27506 ft 407 kts 223°
2026-05-04 12:14 24.47910 120.35575 30286 ft 404 kts 223°
2026-05-04 12:15 24.45729 120.33636 30697 ft 402 kts 223°
2026-05-04 12:15 24.43590 120.31731 31043 ft 402 kts 224°
2026-05-04 12:15 24.41422 120.29797 31389 ft 402 kts 224°
2026-05-04 12:15 24.39253 120.27860 31758 ft 401 kts 224°
2026-05-04 12:16 24.37090 120.25928 32155 ft 401 kts 224°
2026-05-04 12:16 24.34927 120.24002 32538 ft 400 kts 224°
2026-05-04 12:16 24.32767 120.22081 32937 ft 400 kts 225°
2026-05-04 12:16 24.30607 120.20161 33318 ft 399 kts 225°
2026-05-04 12:17 24.28454 120.18246 33732 ft 398 kts 225°
2026-05-04 12:17 24.26304 120.16335 34132 ft 398 kts 225°
2026-05-04 12:17 24.24157 120.14428 34473 ft 397 kts 225°
2026-05-04 12:17 24.22006 120.12520 34787 ft 397 kts 225°
2026-05-04 12:18 24.19857 120.10613 35049 ft 398 kts 225°
2026-05-04 12:18 24.17702 120.08705 35324 ft 399 kts 225°
2026-05-04 12:18 24.15542 120.06797 35609 ft 399 kts 224°
2026-05-04 12:18 24.13332 120.04945 35898 ft 401 kts 223°
2026-05-04 12:19 24.11086 120.03178 36033 ft 404 kts 221°
2026-05-04 12:19 24.08766 120.01419 36066 ft 408 kts 221°
2026-05-04 12:19 24.04047 119.97880 36065 ft 409 kts 221°
2026-05-04 12:20 23.99405 119.94345 36062 ft 409 kts 221°
2026-05-04 12:20 23.94756 119.90764 36068 ft 409 kts 221°
2026-05-04 12:21 23.90108 119.87171 36063 ft 409 kts 221°
2026-05-04 12:21 23.85457 119.83588 36067 ft 409 kts 221°
2026-05-04 12:22 23.80792 119.80007 36077 ft 410 kts 221°
2026-05-04 12:22 23.76120 119.76428 36073 ft 410 kts 221°
2026-05-04 12:23 23.71451 119.72849 36046 ft 410 kts 221°
2026-05-04 12:23 23.66773 119.69262 36056 ft 411 kts 221°
2026-05-04 12:24 23.62090 119.65680 36064 ft 411 kts 221°
2026-05-04 12:24 23.58164 119.61329 36065 ft 399 kts 239°
2026-05-04 12:25 23.55214 119.56223 36065 ft 398 kts 240°
2026-05-04 12:25 23.52254 119.51121 36075 ft 398 kts 241°
2026-05-04 12:26 23.49287 119.46024 36050 ft 399 kts 240°
2026-05-04 12:26 23.46317 119.40913 36053 ft 399 kts 240°
2026-05-04 12:27 23.43340 119.35802 36059 ft 400 kts 240°
2026-05-04 12:27 23.40363 119.30688 36065 ft 400 kts 240°
2026-05-04 12:28 23.37384 119.25567 36070 ft 400 kts 240°
2026-05-04 12:28 23.34410 119.20452 36080 ft 400 kts 240°
2026-05-04 12:29 23.31431 119.15335 36083 ft 400 kts 240°
2026-05-04 12:29 23.28442 119.10227 36067 ft 401 kts 240°
2026-05-04 12:30 23.25441 119.05107 36072 ft 402 kts 240°
2026-05-04 12:30 23.22447 118.99981 36079 ft 402 kts 240°
2026-05-04 12:31 23.19441 118.94850 36088 ft 402 kts 240°
2026-05-04 12:31 23.16431 118.89727 36093 ft 402 kts 240°
2026-05-04 12:32 23.11916 118.82041 36090 ft 402 kts 240°
2026-05-04 12:33 23.08921 118.76949 36073 ft 403 kts 240°
2026-05-04 12:33 23.06396 118.72646 36073 ft 403 kts 240°
2026-05-04 12:34 23.03377 118.67507 36075 ft 404 kts 240°
2026-05-04 12:34 22.99853 118.61537 36088 ft 404 kts 240°
2026-05-04 12:35 22.96814 118.56400 36089 ft 404 kts 240°
2026-05-04 12:35 22.93774 118.51268 36089 ft 404 kts 240°
2026-05-04 12:36 22.91222 118.46975 36097 ft 404 kts 240°
2026-05-04 12:36 22.88193 118.41884 36065 ft 404 kts 240°
2026-05-04 12:37 22.85136 118.36753 36071 ft 406 kts 240°
2026-05-04 12:37 22.82067 118.31612 36076 ft 406 kts 240°
2026-05-04 12:38 22.78993 118.26472 36083 ft 406 kts 240°
2026-05-04 12:38 22.75921 118.21331 36084 ft 406 kts 240°
2026-05-04 12:39 22.72848 118.16192 36100 ft 406 kts 240°
2026-05-04 12:39 22.69778 118.11050 36088 ft 406 kts 240°
2026-05-04 12:40 22.66700 118.05920 36100 ft 406 kts 240°
2026-05-04 12:40 22.63627 118.00789 36092 ft 406 kts 240°
2026-05-04 12:41 22.60555 117.95669 36097 ft 405 kts 240°
2026-05-04 12:41 22.57491 117.90547 36088 ft 405 kts 240°
2026-05-04 12:42 22.54448 117.85411 36095 ft 405 kts 240°
2026-05-04 12:42 22.51407 117.80280 36080 ft 405 kts 240°
2026-05-04 12:43 22.48350 117.75152 36087 ft 405 kts 240°
2026-05-04 12:43 22.45295 117.70028 36069 ft 406 kts 240°
2026-05-04 12:44 22.42233 117.64892 36052 ft 407 kts 240°
2026-05-04 12:44 22.39157 117.59751 36063 ft 408 kts 240°
2026-05-04 12:45 22.36075 117.54597 36059 ft 408 kts 240°
2026-05-04 12:45 22.33722 117.49130 36062 ft 404 kts 257°
2026-05-04 12:46 22.33201 117.43112 36078 ft 404 kts 268°
2026-05-04 12:46 22.33108 117.37045 36079 ft 404 kts 268°
2026-05-04 12:47 22.32995 117.30981 36087 ft 404 kts 268°
2026-05-04 12:47 22.32882 117.24917 36094 ft 404 kts 268°
2026-05-04 12:48 22.32773 117.18851 36089 ft 404 kts 268°
2026-05-04 12:48 22.32656 117.12781 36101 ft 404 kts 268°
2026-05-04 12:49 22.32535 117.06717 36094 ft 403 kts 268°
2026-05-04 12:49 22.32417 117.00666 36093 ft 403 kts 268°
2026-05-04 12:50 22.32293 116.94615 36105 ft 403 kts 268°
2026-05-04 12:50 22.32165 116.88573 36100 ft 402 kts 268°
2026-05-04 12:51 22.32038 116.82539 36091 ft 402 kts 268°
2026-05-04 12:51 22.31910 116.76498 36071 ft 402 kts 268°
2026-05-04 12:52 22.31776 116.70448 36080 ft 403 kts 268°
2026-05-04 12:52 22.31643 116.64396 36081 ft 403 kts 268°
2026-05-04 12:53 22.31507 116.58375 36086 ft 404 kts 268°
2026-05-04 12:53 22.31371 116.52318 36090 ft 404 kts 268°
2026-05-04 12:54 22.31232 116.46262 36093 ft 403 kts 268°
2026-05-04 12:54 22.31087 116.40203 36093 ft 403 kts 268°
2026-05-04 12:55 22.30945 116.34143 36089 ft 403 kts 268°
2026-05-04 12:55 22.30801 116.28090 36090 ft 403 kts 268°
2026-05-04 12:56 22.30647 116.22035 36087 ft 403 kts 268°
2026-05-04 12:56 22.30493 116.15979 36086 ft 403 kts 268°
2026-05-04 12:57 22.30336 116.09920 36088 ft 403 kts 268°
2026-05-04 12:57 22.30189 116.03866 36088 ft 403 kts 268°
2026-05-04 12:58 22.30026 115.97809 36087 ft 403 kts 267°
2026-05-04 12:58 22.29856 115.91748 35981 ft 404 kts 267°
2026-05-04 12:58 22.29773 115.88721 35741 ft 403 kts 267°
2026-05-04 12:59 22.29692 115.85696 35504 ft 403 kts 267°
2026-05-04 12:59 22.29612 115.82668 34846 ft 405 kts 267°
2026-05-04 12:59 22.29535 115.79606 33943 ft 410 kts 267°
2026-05-04 12:59 22.29455 115.76516 32973 ft 413 kts 266°
2026-05-04 13:00 22.29373 115.73408 32038 ft 416 kts 266°
2026-05-04 13:00 22.29289 115.70267 31070 ft 420 kts 266°
2026-05-04 13:00 22.29202 115.67099 30107 ft 424 kts 266°
2026-05-04 13:00 22.29118 115.63943 28936 ft 429 kts 266°
2026-05-04 13:01 22.29030 115.60715 27768 ft 432 kts 267°
2026-05-04 13:01 22.28944 115.57473 26914 ft 430 kts 267°
2026-05-04 13:01 22.28858 115.54274 26205 ft 424 kts 267°
2026-05-04 13:01 22.28769 115.51103 25458 ft 420 kts 267°
2026-05-04 13:02 22.28679 115.47963 24722 ft 417 kts 268°
2026-05-04 13:02 22.28589 115.44843 23999 ft 414 kts 268°
2026-05-04 13:02 22.28499 115.41746 23210 ft 412 kts 268°
2026-05-04 13:02 22.28410 115.38666 22485 ft 407 kts 268°
2026-05-04 13:03 22.28321 115.35626 21799 ft 402 kts 268°
2026-05-04 13:03 22.28237 115.32632 21116 ft 398 kts 268°
2026-05-04 13:03 22.28151 115.29659 20457 ft 394 kts 268°
2026-05-04 13:03 22.28061 115.26715 19823 ft 391 kts 268°
2026-05-04 13:04 22.27970 115.23793 19213 ft 389 kts 268°
2026-05-04 13:04 22.27882 115.20886 18622 ft 386 kts 268°
2026-05-04 13:04 22.27792 115.17989 18002 ft 384 kts 267°
2026-05-04 13:04 22.27698 115.15118 17422 ft 381 kts 267°
2026-05-04 13:05 22.27608 115.12277 16861 ft 377 kts 267°
2026-05-04 13:05 22.27523 115.09470 16308 ft 372 kts 267°
2026-05-04 13:05 22.27438 115.06694 15751 ft 368 kts 267°
2026-05-04 13:05 22.27353 115.03943 15166 ft 365 kts 267°
2026-05-04 13:06 22.27266 115.01216 14575 ft 362 kts 267°
2026-05-04 13:06 22.27177 114.98514 13987 ft 359 kts 267°
2026-05-04 13:06 22.27089 114.95839 13364 ft 355 kts 267°
2026-05-04 13:06 22.27001 114.93193 12774 ft 350 kts 267°
2026-05-04 13:07 22.26912 114.90583 12188 ft 346 kts 267°
2026-05-04 13:07 22.26826 114.88000 11597 ft 343 kts 267°
2026-05-04 13:07 22.26744 114.85464 11324 ft 331 kts 268°
2026-05-04 13:07 22.26667 114.83039 11142 ft 317 kts 267°
2026-05-04 13:08 22.26522 114.80689 10896 ft 308 kts 260°
2026-05-04 13:08 22.25911 114.78482 11007 ft 310 kts 247°
2026-05-04 13:08 22.24801 114.76478 10884 ft 313 kts 233°
2026-05-04 13:08 22.23274 114.74793 10752 ft 315 kts 226°
2026-05-04 13:09 22.21689 114.73170 10625 ft 314 kts 226°
2026-05-04 13:09 22.20105 114.71549 10490 ft 313 kts 226°
2026-05-04 13:09 22.18548 114.69955 10360 ft 302 kts 226°
2026-05-04 13:09 22.17054 114.68425 10242 ft 290 kts 226°
2026-05-04 13:10 22.15615 114.66948 10065 ft 282 kts 226°
2026-05-04 13:10 22.14215 114.65504 9920 ft 275 kts 229°
2026-05-04 13:10 22.13157 114.63817 9791 ft 271 kts 249°
2026-05-04 13:10 22.12791 114.61840 9661 ft 270 kts 268°
2026-05-04 13:11 22.12748 114.59812 9538 ft 271 kts 268°
2026-05-04 13:11 22.12707 114.57781 9411 ft 270 kts 268°
2026-05-04 13:11 22.12663 114.55756 9284 ft 270 kts 268°
2026-05-04 13:11 22.12619 114.53738 9158 ft 269 kts 268°
2026-05-04 13:12 22.12573 114.51728 9032 ft 268 kts 268°
2026-05-04 13:12 22.12528 114.49719 8907 ft 268 kts 268°
2026-05-04 13:12 22.12483 114.47709 8788 ft 268 kts 268°
2026-05-04 13:12 22.12439 114.45728 8638 ft 267 kts 268°
2026-05-04 13:13 22.12394 114.43703 8527 ft 271 kts 268°
2026-05-04 13:13 22.12347 114.41677 8405 ft 270 kts 268°
2026-05-04 13:13 22.12300 114.39661 8280 ft 267 kts 267°
2026-05-04 13:13 22.12252 114.37659 8162 ft 269 kts 268°
2026-05-04 13:14 22.12203 114.35645 8039 ft 268 kts 268°
2026-05-04 13:14 22.12155 114.33634 7918 ft 267 kts 267°
2026-05-04 13:14 22.12107 114.31639 7797 ft 266 kts 268°
2026-05-04 13:14 22.12057 114.29637 7677 ft 268 kts 268°
2026-05-04 13:15 22.12006 114.27637 7553 ft 266 kts 268°
2026-05-04 13:15 22.11956 114.25638 7434 ft 268 kts 268°
2026-05-04 13:15 22.11908 114.23623 7307 ft 269 kts 268°
2026-05-04 13:15 22.11860 114.21613 7195 ft 267 kts 268°
2026-05-04 13:16 22.11812 114.19620 7079 ft 265 kts 268°
2026-05-04 13:16 22.11761 114.17624 6963 ft 267 kts 267°
2026-05-04 13:16 22.11710 114.15642 6844 ft 262 kts 267°
2026-05-04 13:16 22.11659 114.13675 6728 ft 264 kts 267°
2026-05-04 13:17 22.11609 114.11704 6608 ft 264 kts 268°
2026-05-04 13:17 22.11557 114.09715 6493 ft 264 kts 268°
2026-05-04 13:17 22.11505 114.07745 6371 ft 265 kts 268°
2026-05-04 13:17 22.11453 114.05753 6244 ft 265 kts 268°
2026-05-04 13:18 22.11406 114.03785 6125 ft 267 kts 268°
2026-05-04 13:18 22.11357 114.01764 5999 ft 265 kts 268°
2026-05-04 13:18 22.11305 113.99777 5874 ft 265 kts 268°
2026-05-04 13:18 22.11253 113.97785 5752 ft 266 kts 267°
2026-05-04 13:19 22.11202 113.95833 5624 ft 262 kts 266°
2026-05-04 13:19 22.11168 113.94511 5546 ft 261 kts 267°
2026-05-04 13:19 22.11098 113.91880 5379 ft 265 kts 267°
2026-05-04 13:19 22.11044 113.89894 5254 ft 264 kts 267°
2026-05-04 13:20 22.10988 113.87933 5133 ft 267 kts 267°
2026-05-04 13:20 22.10933 113.85933 5011 ft 267 kts 267°
2026-05-04 13:20 22.10880 113.83933 4889 ft 267 kts 268°
2026-05-04 13:20 22.10826 113.81936 4765 ft 266 kts 268°
2026-05-04 13:21 22.10907 113.79935 4638 ft 269 kts 281°
2026-05-04 13:21 22.11605 113.78069 4513 ft 271 kts 302°
2026-05-04 13:21 22.12912 113.76575 4390 ft 272 kts 324°
2026-05-04 13:21 22.14003 113.75908 4258 ft 274 kts 334°
2026-05-04 13:22 22.15729 113.75043 4040 ft 269 kts 335°
2026-05-04 13:22 22.17934 113.73951 3889 ft 258 kts 335°
2026-05-04 13:22 22.19532 113.73158 3769 ft 248 kts 335°
2026-05-04 13:22 22.20566 113.72645 3696 ft 237 kts 336°
2026-05-04 13:23 22.22015 113.71952 3584 ft 218 kts 352°
2026-05-04 13:23 22.23431 113.71841 3529 ft 197 kts 14°
2026-05-04 13:23 22.24666 113.72415 3294 ft 194 kts 40°
2026-05-04 13:23 22.25681 113.73363 2994 ft 192 kts 44°
2026-05-04 13:24 22.26685 113.74298 2741 ft 189 kts 43°
2026-05-04 13:24 22.27655 113.75215 2493 ft 185 kts 50°
2026-05-04 13:24 22.28328 113.76369 2255 ft 177 kts 73°
2026-05-04 13:25 22.29115 113.78802 1814 ft 168 kts 72°
2026-05-04 13:25 22.29490 113.79962 1592 ft 160 kts 72°
2026-05-04 13:25 22.29853 113.81086 1386 ft 157 kts 73°
2026-05-04 13:25 22.30205 113.82175 1177 ft 148 kts 73°
2026-05-04 13:26 22.30534 113.83191 1001 ft 140 kts 73°
2026-05-04 13:26 22.30850 113.84171 833 ft 137 kts 72°
2026-05-04 13:26 22.31162 113.85138 668 ft 135 kts 73°
2026-05-04 13:26 22.31469 113.86091 495 ft 134 kts 72°
2026-05-04 13:27 22.31778 113.87049 315 ft 135 kts 71°
2026-05-04 13:27 22.32085 113.87997 142 ft 134 kts 73°
2026-05-04 13:27 22.32381 113.88920 36 ft 118 kts 69°
2026-05-04 13:27 22.32597 113.89579 34 ft 68 kts 71°
2026-05-04 13:28 22.32697 113.89904 33 ft 37 kts 76°
2026-05-04 13:28 22.32694 113.90125 34 ft 20 kts 104°
2026-05-04 13:28 22.32664 113.90248 35 ft 15 kts 119°
2026-05-04 13:28 22.32565 113.90294 36 ft 17 kts 162°
2026-05-04 13:29 22.32452 113.90336 36 ft 17 kts 160°
2026-05-04 13:29 22.32329 113.90383 36 ft 20 kts 160°
2026-05-04 13:29 22.32187 113.90438 36 ft 23 kts 160°
2026-05-04 13:29 22.32026 113.90501 36 ft 26 kts 159°
2026-05-04 13:30 22.31859 113.90560 36 ft 22 kts 161°
2026-05-04 13:30 22.31723 113.90611 36 ft 14 kts 160°
2026-05-04 13:30 22.31633 113.90612 36 ft 15 kts 233°
2026-05-04 13:30 22.31597 113.90501 36 ft 17 kts 250°
2026-05-04 13:31 22.31553 113.90370 36 ft 20 kts 250°
2026-05-04 13:31 22.31509 113.90225 36 ft 21 kts 251°
2026-05-04 13:31 22.31465 113.90095 35 ft 18 kts 250°
2026-05-04 13:31 22.31424 113.89965 34 ft 19 kts 252°
2026-05-04 13:32 22.31382 113.89834 36 ft 14 kts 251°
2026-05-04 13:32 22.31317 113.89770 36 ft 14 kts 174°
2026-05-04 13:32 22.31219 113.89804 36 ft 16 kts 162°
2026-05-04 13:32 22.31110 113.89843 36 ft 17 kts 161°
2026-05-04 13:33 22.30998 113.89885 36 ft 16 kts 161°
2026-05-04 13:33 22.30970 113.89981 34 ft 16 kts 70°
2026-05-04 13:33 22.31010 113.90102 36 ft 18 kts 71°
2026-05-04 13:33 22.31052 113.90235 36 ft 20 kts 71°
2026-05-04 13:34 22.31098 113.90380 36 ft 21 kts 70°
2026-05-04 13:34 22.31147 113.90534 36 ft 21 kts 72°
2026-05-04 13:34 22.31198 113.90687 36 ft 23 kts 70°
2026-05-04 13:34 22.31252 113.90856 36 ft 24 kts 72°
2026-05-04 13:35 22.31308 113.91031 34 ft 26 kts 71°
2026-05-04 13:35 22.31412 113.91355 35 ft 16 kts 72°
2026-05-04 13:35 22.31361 113.91436 35 ft 16 kts 161°
2026-05-04 13:36 22.31249 113.91479 35 ft 18 kts 161°
2026-05-04 13:36 22.31126 113.91525 35 ft 20 kts 161°
2026-05-04 13:36 22.31018 113.91566 35 ft 16 kts 160°
2026-05-04 13:36 22.30905 113.91609 35 ft 18 kts 161°
2026-05-04 13:37 22.30790 113.91651 35 ft 14 kts 162°
2026-05-04 13:37 22.30707 113.91683 35 ft 11 kts 160°
2026-05-04 13:37 22.30653 113.91706 35 ft 6 kts 141°
2026-05-04 13:37 22.30655 113.91743 35 ft 3 kts 75°
2026-05-04 13:38 22.30664 113.91772 35 ft 4 kts 71°
2026-05-04 13:38 22.30672 113.91797 35 ft 3 kts 71°
2026-05-04 13:38 22.30674 113.91802 35 ft 0 kts 71°